EW4543 Weather Reports


Display with metric or nautical units.
time (UTC)temp
F
wind
direction
speed
MPH
gust
MPH
rain 1hr
in
rain 24hr
in
rain mn
in
humidity
%
barometer
mb
20260901041621 60 255 0.0 0.0 0.00 0.13 0.13 70 1008.1
20260901040157 61 255 0.0 1.0 0.00 0.13 0.13 68 1007.8
20260901034552 62 255 0.0 1.0 0.00 0.13 0.13 66 1007.6
20260901033036 63 268 0.0 1.0 0.00 0.13 0.13 64 1007.4
20260901031537 65 269 0.0 1.0 0.00 0.13 0.13 62 1007.2
20260901030140 66 217 0.0 1.0 0.00 0.13 0.13 60 1007.1
20260901024558 68 194 0.0 1.0 0.00 0.14 0.13 56 1006.8
20260901023043 69 245 0.0 1.0 0.00 0.14 0.13 53 1006.7
20260901021543 71 184 0.0 1.0 0.00 0.14 0.13 50 1006.6
20260901020036 72 227 0.0 1.0 0.00 0.14 0.13 47 1006.5
20260901014638 73 287 0.0 1.0 0.00 0.14 0.13 45 1006.4
20260901013057 74 243 0.0 2.0 0.00 0.14 0.13 42 1006.5
20260901011654 75 223 0.0 2.0 0.00 0.14 0.13 41 1006.5
20260901010053 75 210 0.0 3.0 0.00 0.14 0.13 41 1006.6
20260901004643 75 197 0.0 3.0 0.01 0.16 0.13 40 1006.5
20260901003041 76 185 0.0 3.0 0.02 0.16 0.13 39 1006.6
20260901001648 77 211 0.0 4.0 0.04 0.16 0.13 38 1006.6
20260901000041 77 283 0.0 3.0 0.04 0.16 0.13 37 1006.6
20260831234647 77 293 0.0 2.0 0.04 0.16 0.12 37 1006.5
20260831233104 78 79 0.0 4.0 0.04 0.15 0.11 36 1006.7
20260831231651 78 117 0.0 3.0 0.02 0.13 0.09 37 1006.8
20260831230109 79 326 1.0 3.0 0.02 0.13 0.09 34 1006.9
20260831224553 79 264 1.0 5.0 0.01 0.16 0.08 34 1007.0
20260831223005 80 243 1.0 3.0 0.00 0.15 0.07 32 1006.9
20260831221608 79 136 1.0 4.0 0.00 0.15 0.07 34 1007.0
20260831220050 80 289 2.0 4.0 0.00 0.15 0.07 34 1007.1
20260831214545 79 179 1.0 4.0 0.01 0.16 0.07 36 1007.3
20260831213001 79 310 1.0 4.0 0.01 0.16 0.07 36 1007.4
20260831211548 79 205 0.0 4.0 0.01 0.16 0.07 37 1007.5
20260831204608 78 318 1.0 4.0 0.01 0.16 0.06 39 1007.4
20260831203110 80 190 1.0 4.0 0.03 0.16 0.06 37 1007.5
20260831201557 80 200 1.0 6.0 0.03 0.16 0.06 37 1007.5
20260831200105 80 248 1.0 5.0 0.03 0.15 0.05 35 1007.5
20260831194635 83 140 1.0 4.0 0.03 0.17 0.05 33 1007.6
20260831193059 83 118 0.0 4.0 0.01 0.15 0.03 33 1007.6
20260831191550 81 192 0.0 3.0 0.03 0.15 0.03 37 1007.7
20260831190057 81 158 1.0 5.0 0.02 0.14 0.02 34 1007.6
20260831184549 81 257 2.0 4.0 0.02 0.16 0.02 32 1007.4
20260831183055 82 300 0.0 4.0 0.02 0.16 0.02 34 1007.4
20260831181548 80 129 2.0 3.0 0.00 0.14 0.00 34 1007.4
20260831180048 79 286 1.0 2.0 0.00 0.14 0.00 38 1007.5
20260831174539 78 231 0.0 3.0 0.00 0.14 0.00 40 1007.5
20260831173037 78 213 0.0 2.0 0.00 0.14 0.00 42 1007.6
20260831171537 77 201 1.0 3.0 0.00 0.14 0.00 41 1007.6
20260831170101 77 102 0.0 2.0 0.00 0.14 0.00 43 1007.5
20260831164521 74 129 0.0 1.0 0.00 0.14 0.00 48 1007.4
20260831163013 70 136 0.0 1.0 0.00 0.14 0.00 56 1007.5
20260831161508 66 159 0.0 1.0 0.00 0.14 0.00 58 1007.5
20260831160005 63 124 0.0 0.0 0.00 0.14 0.00 60 1007.6
20260831154559 61 124 0.0 1.0 0.00 0.14 0.00 65 1007.7
20260831153058 59 181 0.0 0.0 0.00 0.14 0.00 70 1007.8
20260831151604 57 181 0.0 0.0 0.00 0.14 0.00 72 1007.8
20260831150050 56 181 0.0 0.0 0.00 0.14 0.00 75 1007.6
20260831144548 55 181 0.0 0.0 0.00 0.14 0.00 75 1007.4
20260831143048 54 182 0.0 0.0 0.00 0.14 0.00 76 1007.2
20260831141547 53 182 0.0 0.0 0.00 0.14 0.00 76 1007.0
20260831140052 53 182 0.0 0.0 0.00 0.14 0.00 76 1006.8
20260831134544 53 182 0.0 0.0 0.00 0.14 0.00 78 1006.7
20260831133031 53 183 0.0 0.0 0.00 0.14 0.00 79 1006.6
20260831131529 53 182 0.0 0.0 0.00 0.14 0.00 83 1006.6
20260831130026 53 182 0.0 0.0 0.00 0.14 0.00 81 1006.7
20260831124526 53 180 0.0 0.0 0.00 0.14 0.00 83 1006.6
20260831123030 52 169 0.0 0.0 0.00 0.14 0.00 76 1006.7
20260831121527 53 169 0.0 0.0 0.00 0.14 0.00 75 1006.8
20260831120018 53 169 0.0 0.0 0.00 0.14 0.00 73 1006.7
20260831114520 53 169 0.0 0.0 0.00 0.14 0.00 73 1006.7
20260831113015 53 169 0.0 0.0 0.00 0.14 0.00 73 1006.8
20260831111514 54 169 0.0 0.0 0.00 0.14 0.00 73 1006.8
20260831110013 53 169 0.0 0.0 0.00 0.14 0.00 73 1006.8
20260831104617 54 169 0.0 0.0 0.00 0.14 0.00 72 1006.9
20260831103011 54 169 0.0 0.0 0.00 0.14 0.00 72 1006.9
20260831101510 54 169 0.0 0.0 0.00 0.14 0.00 71 1006.9
20260831100008 54 169 0.0 0.0 0.00 0.14 0.00 69 1006.9
20260831094507 54 169 0.0 0.0 0.00 0.14 0.00 70 1006.8
20260831093004 54 169 0.0 0.0 0.00 0.14 0.00 68 1006.7
20260831091506 55 169 0.0 0.0 0.00 0.14 0.00 67 1006.9
20260831090002 55 169 0.0 0.0 0.00 0.14 0.00 67 1006.8
20260831084610 55 169 0.0 0.0 0.00 0.14 0.00 66 1006.9
20260831083056 56 169 0.0 0.0 0.00 0.14 0.00 66 1007.1
20260831081555 56 169 0.0 0.0 0.00 0.14 0.00 64 1007.2
20260831080103 56 169 0.0 0.0 0.00 0.14 0.00 64 1007.2
20260831074552 57 169 0.0 0.0 0.00 0.14 0.00 63 1007.3
20260831073052 57 169 0.0 0.0 0.00 0.14 0.00 62 1007.3
20260831071548 57 169 0.0 0.0 0.00 0.14 0.00 62 1007.2
20260831070048 58 169 0.0 0.0 0.00 0.14 0.00 61 1007.2
20260831064544 59 169 0.0 0.0 0.00 0.14 0.14 61 1007.2
20260831063044 59 169 0.0 0.0 0.00 0.14 0.14 61 1007.2
20260831061544 59 169 0.0 0.0 0.00 0.14 0.14 59 1007.3
20260831060043 60 169 0.0 0.0 0.00 0.14 0.14 59 1007.4
20260831054543 61 169 0.0 0.0 0.00 0.14 0.14 57 1007.4
20260831053043 61 169 0.0 0.0 0.00 0.14 0.14 56 1007.5
20260831051546 62 169 0.0 0.0 0.00 0.14 0.14 54 1007.5
20260831050042 63 169 0.0 0.0 0.00 0.14 0.14 52 1007.6
20260831044551 64 169 0.0 0.0 0.00 0.14 0.14 51 1007.5
20260831043040 64 169 0.0 0.0 0.00 0.14 0.14 48 1007.5